Regional Weather Roundup
Issued by NWS

Home | Current Version | Previous Version | Text Only | Print | Product List | Glossary Off
Versions: 1 2 3 4 5 6 7 8 9 10 11 12 13 14 15 16 17 18 19 20 21 22 23 24 25 26 27 28 29 30 31 32 33 34 35 36 37 38 39 40 41 42 43 44 45 46 47 48 49 50

000
ASUS43 KMPX 310110
RWRMN
WEATHER ROUNDUP FOR MINNESOTA
NATIONAL WEATHER SERVICE TWIN CITIES/CHANHASSEN MN
800 PM CDT MON MAY 30 2016


NOTE: "FAIR" INDICATES FEW OR NO CLOUDS BELOW 12,000 FEET WITH NO
SIGNIFICANT WEATHER AND/OR OBSTRUCTIONS TO VISIBILITY. N/A MEANS
CURRENT SKY AND/OR WEATHER CONDITIONS ARE NOT AVAILABLE.

MNZ060>063-068>070-310200-
   Twin Cities Metro

CITY           SKY/WX    TMP DP  RH WIND       PRES   REMARKS
TWIN CITIES    CLOUDY    80  50  34 SE12      29.88S
ST PAUL        PTCLDY    76  53  44 E7        29.89S
CRYSTAL        PTCLDY    78  48  34 SE8       29.87S
BLAINE         MOCLDY    79  52  38 SE6       29.88F
EDEN PRAIRIE   CLOUDY    79  52  38 SE9       29.87S
SOUTH ST PAUL  CLOUDY    79  49  34 SE3       29.89S
LAKE ELMO      FAIR      75  54  46 E7        29.91S
$$
MNZ001>005-007-008-013>017-022>024-027-028-310200-
   Northwest Minnesota

CITY           SKY/WX    TMP DP  RH WIND       PRES   REMARKS
BEMIDJI        CLOUDY    64  55  71 E6        29.88F
HALLOCK        LGT RAIN  68  57  68 S10       29.87R
ROSEAU         PTSUNNY   70  57  64 E9        29.89R
WARROAD        CLOUDY    64  57  77 NE8       29.91R
THIEF RVR FALL CLOUDY    63  54  72 NW7       29.90R THUNDER
CROOKSTON      CLOUDY    57  57 100 NE13      29.84F
FOSSTON        CLOUDY    70  55  60 E6        29.85F
DETROIT LAKES  LGT RAIN  72  54  53 SE8       29.83F
MOORHEAD       CLOUDY    73  57  56 SE12      29.78S
PARK RAPIDS    PTCLDY    73  54  51 E8        29.87S
MAHNOMEN       FAIR      72  53  52 E12       29.82F
$$
MNZ006-009>011-018-025>026-310200-
   North Central Minnesota

CITY           SKY/WX    TMP DP  RH WIND       PRES   REMARKS
BAUDETTE       CLOUDY    70  49  47 E10       29.90R
FLAG ISLAND    CLOUDY    66  52  59 E13G20    29.92R
INTL FALLS     CLOUDY    70  48  45 E6        29.93R
WASKISH        CLOUDY    72  57  60 E3        29.90R
BIG FORK       PTCLDY    70  48  46 CALM      29.91S
LONGVILLE      PTCLDY    63  61  94 CALM      29.90S
GRAND RAPIDS   CLOUDY    69  53  56 S3        29.93S
CRANE LAKE     CLEAR     68  46  45 CALM      29.96R
ORR            CLEAR     64  48  55 CALM      29.92R
COOK           CLEAR     70  48  46 CALM      29.94S
WALKER         CLOUDY    68  56  66 CALM      29.89R
$$
MNZ012-019>021-037-310200-
   Northeast Minnesota

CITY           SKY/WX    TMP DP  RH WIND       PRES   REMARKS
DULUTH         CLOUDY    69  49  48 E6        29.93S
ELY            CLEAR     70  41  35 NE5       29.96R
HIBBING        CLOUDY    71  46  40 E3        29.92R
EVELETH        PTCLDY    72  45  37 E5        29.95R
DULUTH HARBOR  MOCLDY    61  46  59 NE5       29.92R
TWO HARBORS      N/A     72  54  53 CALM      29.92R
SILVER BAY     MOCLDY    70  45  40 NE3       29.93S
GRAND MARAIS     N/A     55  42  61 CALM      29.96R
G MARAIS ARPRT CLEAR     64  43  45 N6        30.01R
$$
MNZ029>031-032-039>041-046>048-054>057-064-310200-
   West Central Minnesota

CITY           SKY/WX    TMP DP  RH WIND       PRES   REMARKS
FERGUS FALLS   TSTM      68  59  73 N13G20    29.76R
WHEATON        PTCLDY    82  54  36 SE14G20   29.77S
MORRIS         CLEAR     81  54  39 SE12      29.78S
ALEXANDRIA     CLOUDY    73  56  54 E8        29.84F
ELBOW LAKE     FAIR      75  56  50 SE13      29.80S
WADENA         PTCLDY    75  52  43 SE10      29.84F
GLENWOOD       CLOUDY    77  54  44 SE13      29.84S
APPLETON       CLEAR     82  52  34 SE8       29.77F
ORTONVILLE     CLEAR     81  54  39 S8        29.77S
MADISON        CLEAR     82  52  34 S9        29.77F
WILLMAR        FAIR      81  55  41 SE14      29.83S
$$
MNZ033>034-036-042>043-049>051-058-059-310200-
   Central Minnesota

CITY           SKY/WX    TMP DP  RH WIND       PRES   REMARKS
ST CLOUD       CLOUDY    77  51  40 E6        29.86F
SAUK CENTRE    FAIR      76  53  45 SE10G17   29.85S
PAYNESVILLE    PTCLDY    78  49  36 E9G16     29.85S
AITKIN         PTCLDY    73  52  46 E3        29.89S
PINE RIVER     PTCLDY    70  55  60 E5        29.92S
BRAINERD       PTCLDY    75  51  43 SE6       29.89R
STAPLES        CLOUDY    75  50  41 SE5       29.86F
LONG PRAIRIE   FAIR      73  52  46 E10       29.86F
LITTLE FALLS   CLOUDY    75  50  41 SE6       29.87S
LITCHFIELD     PTCLDY    79  54  41 SE12      29.86R
BUFFALO        CLOUDY    76  54  45 E6        29.87F
MAPLE LAKE     CLOUDY    78  56  45 E5        29.87F
HUTCHINSON     CLOUDY    77  59  54 E8        29.86S
$$
MNZ037-044-045-052-053-310200-
   East Central Minnesota

CITY           SKY/WX    TMP DP  RH WIND       PRES   REMARKS
PRINCETON      PTCLDY    77  54  44 E3        29.88F
MORA           PTCLDY    73  55  53 CALM      29.91S
CAMBRIDGE        N/A     79  59  50 E3        29.88S
RUSH CITY      CLEAR     75  53  45 SE5       29.90S
MOOSE LAKE     CLOUDY    64  57  77 CALM      29.90F
HINCKLEY       FAIR      73  59  60 CALM      29.90S
CLOQUET        MOCLDY    66  52  59 S3        29.93F
MCGREGOR       PTCLDY    70  54  56 NE3       29.92S
$$
MNZ071>073-080-081-089-090-097-098-310200-
   Southwest Minnesota

CITY           SKY/WX    TMP DP  RH WIND       PRES   REMARKS
MONTEVIDEO     PTCLDY    81  54  39 S14       29.81S
GRANITE FALLS  PTCLDY    84  55  36 SE13      29.81S
CANBY          CLEAR     84  55  36 SW7       29.80R
MARSHALL       CLEAR     81  55  40 S9        29.80R
REDWOOD FALLS  CLEAR     81  55  40 SE14      29.80S
OLIVIA         CLEAR     77  52  41 SE12G18   29.82S
PIPESTONE      CLOUDY    79  52  38 S8        29.81F
WINDOM         CLEAR     79  54  41 CALM      29.83S
WORTHINGTON    CLEAR     79  56  45 S10       29.84R
JACKSON        CLEAR     81  52  36 SE9       29.85R
TRACY          CLEAR     81  53  37 S12       29.82R
SLAYTON        CLEAR     78  51  38 SE12      29.83S
$$
MNZ065>067-074>077-082>085-091>093-310200-
   South Central Minnesota

CITY           SKY/WX    TMP DP  RH WIND       PRES   REMARKS
MANKATO        MOCLDY    79  55  44 SE12      29.86S
NEW ULM        CLOUDY    79  55  44 SE10      29.84S
ST JAMES       CLOUDY    75  54  46 SE16      29.85R
FAIRMONT       CLEAR     77  55  47 SE12      29.85S
GLENCOE        PTCLDY    80  61  52 E10       29.85S
FARIBAULT      CLOUDY    75  54  46 E7        29.89S
OWATONNA       PTCLDY    79  57  47 E7        29.89F
WASECA         CLOUDY    77  59  53 SE7       29.89F
ALBERT LEA     CLOUDY    79  57  47 S7        29.91R
$$
MNZ078>079-086>088-094>096-310200-
   Southeast Minnesota

CITY           SKY/WX    TMP DP  RH WIND       PRES   REMARKS
ROCHESTER      CLOUDY    73  54  51 SE13      29.92S
RED WING       CLOUDY    77  52  41 SE6       29.90R
STANTON        PTCLDY    78  53  41 E5        29.88S
DODGE CENTER   CLOUDY    79  54  41 S9        29.91F
WINONA         CLEAR     77  52  41 SE6       29.93S
AUSTIN         CLOUDY    75  55  50 SE6       29.90F
PRESTON        CLOUDY    74  53  46 SE6       29.94S
$$
ABBREVIATIONS USED IN REMARKS
   TC - TEMPERATURES IN CELSIUS
  WCI - WIND CHILL INDEX
   HX - HEAT INDEX
  VSB - VISIBILITY
$$




USA.gov is the U.S. government's official web portal to all federal, state and local government web resources and services.